Theta_e
321 313 313 312 302 300 297 303 312 312 314 321 322 318 325 329 323 316 336 352 355 356 362 364 365 364 364 364 363 361 360 361 361 361 361 362 363 362 361 361 362 362 361 359 358 356 354 354 355
317 319 316 309 297 293 298 308 308 313 320 322 322 320 330 324 328 333 340 354 354 356 359 362 365 365 363 363 362 360 359 361 361 361 361 362 362 363 362 361 362 362 358 357 355 354 354 353 354
320 318 306 301 296 295 298 308 311 315 323 321 318 322 336 332 335 338 347 354 355 354 358 362 365 365 364 364 362 360 360 361 361 361 361 361 362 362 362 361 361 361 358 357 355 355 356 355 355
307 304 306 296 295 302 305 310 313 315 321 323 322 322 340 347 343 348 353 356 353 353 358 363 364 365 364 363 362 360 360 361 361 361 362 361 362 362 362 361 360 359 358 355 355 357 357 356 356
305 299 295 294 298 304 309 312 314 313 316 319 322 316 333 340 346 352 352 354 352 353 358 361 364 364 364 363 362 361 361 360 361 361 362 361 361 361 361 361 359 358 357 356 356 357 356 356 355
296 297 288 291 297 305 309 313 313 312 317 319 318 319 334 342 341 349 351 350 352 355 356 360 364 363 363 362 362 361 360 360 360 361 361 361 360 360 360 359 359 358 357 357 357 357 356 355 354
295 291 289 291 295 300 307 313 312 310 312 318 320 319 334 337 339 342 346 348 355 354 354 357 360 362 363 362 361 360 360 359 359 359 360 360 359 359 359 358 359 359 357 355 356 356 355 354 354
299 294 290 294 294 295 304 308 313 311 313 321 323 318 330 339 343 342 339 352 351 351 352 353 356 358 359 359 361 360 360 360 359 359 359 359 359 359 358 356 358 358 357 355 355 355 354 354 352
301 293 291 293 296 298 303 304 310 315 315 319 321 337 343 344 347 343 340 337 345 349 348 350 352 354 356 357 360 360 361 360 359 359 359 356 352 354 355 355 357 357 356 355 354 354 354 353 352
295 292 293 299 300 299 302 303 305 307 315 315 320 343 345 343 342 340 334 338 340 344 345 347 347 349 351 356 356 356 357 356 355 355 355 351 346 349 352 353 356 356 356 355 354 353 353 353 342
294 293 299 300 303 303 302 303 305 303 304 311 313 334 338 336 338 336 333 340 337 340 345 345 344 344 343 349 352 353 353 353 352 351 351 346 346 348 348 345 348 348 354 348 349 348 346 342 338
293 298 301 302 304 303 302 304 304 303 304 310 315 332 332 331 331 333 332 329 337 335 338 345 343 342 339 348 346 344 346 345 345 345 348 344 341 341 342 343 344 346 346 344 341 342 342 340 337
295 297 301 303 304 303 304 303 302 302 307 309 320 326 328 327 328 329 331 336 338 337 336 342 342 339 341 345 341 342 342 342 342 342 347 342 340 341 341 343 343 344 345 345 340 340 340 340 339
297 298 300 301 301 303 301 302 301 304 306 309 315 319 326 326 328 327 329 333 336 338 336 340 340 339 341 344 341 342 343 343 344 343 347 345 343 341 343 341 344 343 345 343 341 340 339 342 342
298 295 297 299 300 298 301 297 299 304 305 306 308 311 319 330 332 332 334 334 333 336 338 339 341 340 336 338 344 345 345 345 346 345 347 347 346 343 349 343 343 347 347 344 342 344 347 346 346
296 293 289 295 299 301 299 293 300 304 303 303 307 308 317 319 325 332 330 328 327 332 334 340 347 341 340 337 337 340 341 348 348 349 348 348 351 352 353 349 352 349 347 345 345 344 344 345 345
292 287 288 292 299 299 298 294 300 303 303 302 303 304 305 315 319 323 326 328 328 330 333 334 336 339 339 336 336 336 335 336 352 352 353 350 352 353 351 351 349 349 349 346 340 332 333 343 344
288 288 291 291 296 297 294 295 299 302 302 301 302 304 304 304 316 323 323 324 328 328 329 332 334 336 337 335 334 334 332 333 349 351 355 353 353 352 350 351 349 349 347 342 338 330 331 343 339
295 293 291 295 298 295 295 294 297 300 300 299 300 301 303 304 309 323 324 324 326 322 326 328 329 331 336 335 331 330 329 336 339 353 355 355 355 352 346 344 343 347 347 344 345 342 341 342 337
294 292 292 296 299 296 294 294 297 299 299 301 301 301 301 303 306 321 322 326 322 321 323 327 330 335 333 335 333 328 327 337 343 353 350 354 352 342 336 337 334 344 343 339 341 340 336 333 330
293 292 292 293 298 299 296 292 296 300 300 301 301 302 303 303 304 308 323 322 323 319 325 328 330 335 328 329 329 327 325 334 325 345 349 348 349 347 342 339 346 346 344 339 339 339 333 327 327
290 297 297 296 292 287 295 285 293 298 299 300 301 300 301 303 305 308 320 319 320 320 326 327 328 335 337 341 336 331 336 338 342 343 347 347 340 330 347 348 347 346 338 336 334 341 335 331 326
294 299 296 295 291 288 291 286 290 296 297 299 304 307 307 302 304 309 320 321 321 323 326 328 336 340 344 343 344 340 338 339 342 342 340 342 347 348 351 348 346 342 335 331 330 327 334 331 325
300 296 294 293 289 283 289 288 288 292 296 302 307 306 309 309 312 315 317 321 316 319 319 320 336 338 342 345 344 341 334 334 330 334 334 338 339 338 341 342 340 334 334 331 331 329 329 329 326
295 289 281 280 281 282 292 289 291 300 305 306 307 306 307 309 310 312 314 316 319 320 326 325 327 334 330 327 327 325 327 329 325 325 326 326 328 328 328 330 330 332 333 332 332 331 330 330 327
292 290 282 278 281 285 294 287 291 305 307 308 308 309 310 309 310 311 316 318 320 321 323 326 326 324 323 322 321 321 322 322 321 319 321 321 319 321 321 322 322 324 327 329 329 329 330 331 329
293 289 292 287 291 286 289 296 302 304 304 305 307 309 310 313 315 316 317 317 318 318 318 319 319 318 317 319 319 318 317 317 317 318 318 319 320 320 320 320 319 321 322 322 322 322 324 327 326
296 296 288 286 282 279 286 292 294 298 299 302 305 307 309 311 312 313 314 315 317 318 319 318 317 318 315 313 314 314 313 313 314 313 313 313 313 313 314 315 315 315 316 317 317 318 319 318 320
292 291 291 291 290 281 281 289 302 303 306 302 306 308 307 307 307 309 311 312 311 313 314 315 314 312 311 311 310 310 310 311 312 312 312 313 313 313 313 314 313 313 313 313 313 313 315 315 315
297 293 294 287 287 291 287 287 303 304 305 306 310 310 306 306 306 307 308 308 308 307 307 309 309 308 308 309 310 309 309 310 310 310 311 312 310 311 312 312 312 312 312 311 311 311 311 311 311
Wind_Speed
6 8 4 2 3 2 6 11 11 19 17 6 5 3 7 6 8 11 17 9 20 15 13 16 20 21 21 19 18 18 17 17 17 17 16 15 15 14 14 14 14 14 13 12 11 10 11 11 10
4 5 2 4 3 2 7 16 17 20 12 5 4 2 5 5 5 6 8 17 21 16 12 14 19 19 20 19 18 18 18 18 17 17 16 15 15 15 14 14 13 13 13 12 11 10 10 10 9
3 5 2 4 5 8 7 17 17 12 7 11 3 4 9 13 14 9 13 19 19 16 11 12 18 18 17 18 18 17 18 17 18 17 16 15 14 14 14 14 13 13 12 11 11 10 9 9 8
3 2 4 2 9 13 20 22 14 21 7 11 8 3 6 2 18 18 25 21 18 14 11 17 18 17 17 17 17 16 16 17 18 17 16 15 14 13 13 13 13 12 12 11 12 10 9 8 7
2 2 4 5 11 15 18 19 16 13 11 4 9 5 10 6 14 29 25 24 19 14 11 12 20 20 19 18 18 18 17 16 17 16 16 15 15 13 13 13 12 11 10 10 11 10 9 8 6
2 3 2 12 15 14 18 19 16 10 11 14 6 6 7 15 12 18 22 22 20 17 14 12 17 17 20 20 18 18 17 16 16 16 15 15 14 14 13 12 11 11 10 9 9 9 8 7 6
5 2 7 8 12 15 21 20 16 8 10 13 4 6 3 13 15 13 7 15 16 15 13 8 9 14 16 18 19 18 16 15 15 15 14 13 13 13 12 11 10 10 9 9 9 9 8 8 8
5 3 8 10 13 19 18 19 13 10 8 13 4 4 3 3 7 18 19 15 15 12 12 10 9 10 10 10 16 18 18 16 14 15 14 13 12 11 11 11 10 10 10 9 10 9 9 9 9
4 9 13 18 15 13 12 14 16 12 16 5 2 6 13 12 15 19 18 11 2 13 9 7 7 7 8 9 11 13 16 16 15 14 14 11 5 7 8 8 10 11 11 11 10 10 10 9 10
7 8 20 10 13 14 14 14 14 12 7 12 13 11 14 11 17 17 13 20 3 8 15 11 9 8 9 9 11 8 9 7 7 7 9 6 7 7 10 10 12 13 12 11 11 10 10 9 4
7 18 11 13 18 19 18 21 9 8 9 4 11 19 14 14 16 19 23 12 6 4 9 16 13 8 8 8 6 4 4 5 5 9 8 6 6 7 7 5 6 5 11 5 7 6 5 6 5
14 19 17 17 17 16 13 12 16 9 9 8 10 22 16 18 13 12 11 3 8 7 8 7 15 16 9 8 7 6 5 6 6 7 9 7 4 5 6 5 7 7 6 7 6 5 6 7 7
19 15 18 21 21 18 12 18 18 14 10 9 8 16 17 17 16 8 7 3 6 9 6 3 3 3 7 13 8 7 5 4 5 5 7 6 5 5 7 6 7 7 6 6 6 6 6 8 8
9 14 18 14 18 18 16 15 7 20 8 9 7 2 18 23 24 18 10 6 9 16 2 4 5 5 8 3 7 7 5 7 7 7 8 10 7 6 5 6 7 5 6 6 5 7 7 7 6
13 16 14 15 10 8 7 10 21 14 8 9 2 1 6 20 21 20 18 16 13 10 9 8 3 5 6 7 8 3 7 8 8 9 11 12 9 7 6 5 4 5 6 6 6 8 5 4 4
10 8 13 10 7 11 7 14 10 9 9 10 10 4 7 8 18 26 21 15 12 13 13 10 7 5 6 6 7 2 8 5 9 10 11 14 10 8 5 4 3 5 4 3 4 3 4 2 1
7 9 9 7 11 8 14 12 10 9 8 13 12 7 5 7 5 14 16 16 13 10 11 9 9 6 7 7 6 3 8 11 14 7 11 14 13 11 7 5 4 3 1 3 5 9 12 5 4
11 10 11 12 14 13 10 13 11 11 9 9 8 19 9 8 10 13 15 12 13 12 10 10 7 8 9 7 1 5 7 8 24 9 8 15 12 10 6 6 6 4 5 4 6 6 11 7 6
15 16 13 18 15 11 16 9 10 12 10 10 9 9 8 11 9 15 16 11 10 9 8 8 10 6 5 3 6 5 5 3 18 7 8 13 10 6 3 2 3 3 3 5 6 8 9 6 4
19 19 19 12 19 12 10 11 10 11 11 15 15 12 10 7 5 12 9 12 13 12 12 10 11 13 8 7 3 3 6 4 6 18 7 10 10 9 2 5 4 6 2 2 5 4 2 2 0
20 19 16 10 8 4 5 5 5 7 8 9 10 11 11 10 10 8 15 15 11 11 10 11 14 18 11 8 8 6 2 6 11 15 2 4 9 12 10 23 11 7 3 5 6 6 6 4 2
19 20 20 13 6 4 4 6 9 8 12 8 11 10 11 10 10 7 13 11 9 9 9 9 8 9 14 18 18 20 17 13 9 5 2 5 4 8 10 10 8 5 3 4 4 5 4 4 4
17 16 16 10 6 1 8 1 8 5 5 3 6 8 9 9 8 6 16 21 20 15 14 11 10 9 8 4 3 3 3 2 3 0 6 4 6 5 4 5 6 5 4 4 4 3 5 4 4
19 8 7 9 4 5 6 6 7 7 8 5 4 6 8 9 8 8 5 17 5 8 7 7 7 5 7 7 6 6 6 4 6 5 4 3 2 3 1 4 4 5 6 6 4 3 3 4 3
12 7 2 1 4 6 11 10 12 5 7 8 8 8 6 10 8 9 12 13 11 10 8 3 7 8 13 11 11 7 5 9 8 6 7 7 3 3 7 6 7 5 4 2 1 2 4 4 4
10 10 7 9 6 11 13 9 8 8 9 7 6 5 6 9 10 11 14 16 16 15 16 17 15 12 9 9 7 6 7 7 5 6 6 6 6 4 7 7 6 7 6 6 6 3 4 4 4
9 10 8 3 3 2 3 5 7 8 8 8 8 9 10 12 15 16 14 13 14 17 16 16 13 7 10 8 11 10 9 11 9 8 6 5 6 5 7 8 8 7 7 6 6 4 5 4 4
14 10 10 3 6 5 1 6 1 6 8 15 6 12 13 16 15 15 14 12 10 9 9 12 9 7 8 8 6 6 8 9 9 8 8 8 7 4 3 5 6 6 6 6 5 4 5 6 6
7 10 6 5 5 7 5 4 9 4 7 12 15 11 12 11 8 8 10 8 7 9 8 8 7 6 7 7 6 7 7 8 8 7 7 7 7 8 8 7 6 6 6 7 6 7 7 7 7
9 8 7 6 1 4 5 2 5 3 11 18 9 8 7 9 9 7 7 8 7 8 8 8 7 7 7 7 7 8 8 8 8 6 6 6 6 7 7 7 7 8 8 7 7 7 9 8 8
Wind_Direction
297 288 283 308 27 144 252 257 262 282 297 91 346 358 109 69 148 168 249 172 138 142 149 147 146 144 140 141 139 137 135 133 130 129 128 127 124 123 121 117 114 114 114 112 110 108 110 110 105
309 309 281 261 159 258 259 250 259 256 307 116 147 315 68 60 125 188 151 163 143 142 150 148 148 146 144 144 142 142 141 140 137 137 137 136 134 132 127 123 120 119 119 119 116 117 114 111 112
279 238 64 179 202 224 247 258 258 302 349 347 158 248 125 153 176 127 149 146 135 138 144 146 143 144 145 144 145 146 146 144 142 142 141 142 141 137 134 129 128 127 128 128 125 125 122 121 121
249 331 304 228 238 234 234 263 281 288 315 355 322 69 54 27 144 139 139 138 131 138 145 145 140 142 143 145 147 148 149 149 146 147 147 148 146 144 139 134 133 136 139 144 139 138 136 134 134
246 276 228 224 242 258 264 265 282 295 317 192 281 274 133 178 142 130 138 136 140 137 140 146 145 148 148 151 153 151 153 153 151 151 152 153 153 150 144 140 142 145 147 152 149 150 147 146 151
283 153 258 230 252 256 262 266 275 289 300 302 313 334 57 21 72 135 141 137 147 137 143 149 148 151 151 153 155 154 155 157 154 155 157 157 155 153 152 151 152 155 153 161 158 157 159 159 168
208 223 219 255 264 263 249 262 269 266 270 268 358 48 81 17 16 32 111 127 120 128 127 131 142 143 152 153 154 153 154 158 156 156 158 158 158 159 159 157 160 162 161 166 171 167 177 177 189
205 224 261 239 243 261 270 278 273 246 270 288 43 19 202 251 18 45 26 110 121 127 134 142 146 148 146 153 157 155 156 159 160 159 158 157 161 163 166 166 169 171 173 179 182 181 191 195 204
254 232 237 240 241 243 277 273 277 285 228 248 302 93 137 158 65 39 23 7 114 134 134 138 142 145 145 147 159 156 158 159 161 161 161 156 157 167 176 179 184 185 189 190 193 192 202 208 217
203 225 233 245 255 262 270 283 288 316 310 235 251 96 127 129 114 107 5 296 26 159 150 159 172 167 155 158 163 152 164 160 163 164 166 165 173 177 183 190 197 197 198 201 203 204 207 215 213
254 241 244 238 254 266 276 282 296 298 291 270 215 145 137 130 135 148 166 204 356 313 190 168 164 172 172 147 156 162 165 168 175 177 177 183 189 192 194 188 192 188 205 203 211 210 209 213 211
240 239 244 254 260 260 263 282 282 273 255 287 298 145 137 143 144 141 148 108 9 16 323 209 168 167 182 151 162 168 175 181 184 193 179 184 190 194 202 188 186 191 197 205 202 202 210 219 224
229 241 236 237 246 253 267 271 276 283 289 290 17 124 136 137 119 122 136 159 78 315 331 79 139 187 175 160 169 171 177 180 183 182 189 187 202 203 199 189 191 197 201 203 212 210 210 210 219
235 240 245 239 228 236 249 261 298 270 289 301 105 83 157 152 155 154 170 161 147 204 238 312 84 63 47 209 164 174 164 182 187 197 197 196 203 218 200 187 191 201 201 207 209 214 212 216 218
241 254 268 242 237 230 225 261 247 274 289 286 246 205 224 172 156 161 160 176 162 159 156 215 203 100 97 94 25 303 189 185 197 196 197 197 198 205 217 207 213 200 195 193 210 230 203 177 197
254 256 249 258 235 226 184 256 263 257 277 281 275 200 218 187 140 155 155 156 155 155 171 180 195 157 122 117 104 84 337 291 208 196 189 193 197 194 199 206 211 228 234 215 187 24 40 29 356
269 241 244 246 255 231 196 242 251 266 255 257 266 239 210 248 200 141 141 143 152 152 157 162 174 204 140 47 87 71 324 342 277 197 186 190 197 203 183 182 223 259 51 85 84 49 358 302 296
233 226 235 247 228 238 242 228 222 231 243 244 251 262 231 213 218 168 151 148 141 153 159 163 150 169 160 151 45 58 45 338 267 221 176 184 192 193 175 186 204 162 129 131 102 130 221 226 227
244 245 226 229 238 200 230 222 212 213 220 235 244 244 267 236 209 183 173 152 114 137 151 157 141 166 150 117 201 196 88 295 299 297 189 184 175 152 161 242 227 199 177 151 193 183 198 205 222
240 247 253 261 226 202 206 224 223 223 210 209 218 234 238 257 208 177 168 151 155 161 154 154 161 169 183 184 146 95 116 241 237 271 222 163 133 137 133 258 247 247 185 112 225 195 195 230 62
228 242 252 246 289 190 177 269 257 260 218 215 207 203 224 214 234 188 175 174 165 158 161 159 157 170 175 165 154 123 143 140 273 251 296 96 143 155 165 222 221 205 177 204 222 184 177 186 250
226 225 242 258 266 225 159 242 252 238 243 245 240 210 214 228 220 203 157 172 164 178 161 152 157 149 165 169 167 186 197 174 180 186 168 156 163 189 183 193 200 179 161 184 208 181 186 147 210
227 214 213 244 261 200 292 93 257 260 185 174 39 64 12 261 216 173 174 178 195 172 159 164 143 137 143 127 81 108 122 346 71 291 176 183 181 193 180 194 156 167 195 206 210 200 195 180 176
232 218 182 200 199 246 227 230 261 240 214 116 78 76 67 71 59 73 73 191 187 64 113 122 105 115 123 122 103 79 55 77 55 54 55 50 71 46 166 235 174 172 177 190 205 191 197 215 209
208 128 224 240 213 214 223 225 227 179 133 142 140 129 114 101 86 72 65 61 49 49 52 88 108 70 60 54 63 63 75 64 78 81 72 71 51 41 30 42 38 33 4 331 290 254 228 223 209
205 164 157 179 171 228 232 248 273 105 82 90 97 81 31 92 105 85 72 80 70 65 59 49 37 70 83 79 68 71 63 74 69 60 54 60 58 35 20 35 36 28 19 14 9 346 321 297 268
191 200 189 155 223 100 195 145 65 88 91 84 71 25 71 66 72 82 75 64 81 81 70 69 43 32 40 55 53 39 47 57 54 39 43 63 68 20 8 22 15 7 2 354 346 324 310 304 280
185 160 209 201 178 220 282 78 249 39 6 36 56 82 61 54 60 68 73 78 80 79 82 90 80 87 71 64 61 59 40 40 35 35 28 23 17 48 58 32 16 359 343 332 331 306 297 301 294
186 190 186 127 124 167 127 127 359 40 73 54 25 9 90 78 64 73 89 83 80 87 89 89 103 68 80 81 77 66 54 47 42 36 24 13 5 2 1 357 355 341 322 318 317 307 296 288 286
191 179 144 123 250 69 104 90 332 49 119 88 39 343 99 116 121 117 95 84 74 80 77 84 67 57 43 52 65 60 52 44 41 23 15 10 354 352 354 5 7 2 354 356 352 344 341 334 332